F1ZRP-13 Weather Reports


time (UTC)temp
C
wind
direction
speed
KPH
gust
KPH
rain 1hr
cm
rain 24hr
cm
rain mn
cm
humidity
%
barometer
mb
20260504205018 13 0.0 0.0 0.00 0.00 0.00 77 1013.9
20260504203639 14 0.0 0.0 0.00 0.00 0.00 77 1014.0
20260504202328 14 0.0 0.0 0.00 0.00 0.00 76 1014.0
20260504200540 14 0.0 0.0 0.00 0.00 0.00 76 1014.1
20260504195134 14 0.0 0.0 0.00 0.00 0.00 76 1014.0
20260504193820 14 0.0 0.0 0.00 0.00 0.00 75 1013.9
20260504192307 14 0.0 0.0 0.00 0.00 0.00 75 1013.8
20260504190315 15 0.0 0.0 0.00 0.00 0.00 74 1013.7
20260504185037 15 0.0 0.0 0.00 0.00 0.00 73 1013.7
20260504183828 15 0.0 0.0 0.00 0.00 0.00 72 1013.6
20260504182724 15 0.0 0.0 0.00 0.00 0.00 72 1013.6
20260504181716 15 0.0 0.0 0.00 0.00 0.00 72 1013.7
20260504180535 15 0.0 0.0 0.00 0.00 0.00 71 1013.6
20260504174604 15 0.0 0.0 0.00 0.00 0.00 70 1013.6
20260504172808 15 0.0 0.0 0.00 0.00 0.00 71 1013.7
20260504171419 15 0.0 0.0 0.00 0.00 0.00 70 1013.7
20260504160328 16 0.0 0.0 0.00 0.00 0.00 70 1014.0
20260504150614 16 0.0 0.0 0.00 0.00 0.00 69 1014.3
20260504130644 16 0.0 0.0 0.00 0.00 0.00 72 1015.0
20260504100141 16 0.0 0.0 0.00 0.00 0.00 73 1015.7
20260504081838 16 0.0 0.0 0.00 0.00 0.00 69 1015.5
20260504080311 15 0.0 0.0 0.00 0.00 0.00 70 1015.4
20260504070320 13 0.0 0.0 0.00 0.00 0.00 79 1014.9
20260504060125 11 0.0 0.0 0.00 0.00 0.00 82 1014.8
20260504045210 10 0.0 0.0 0.00 0.00 0.00 84 1014.7
20260504043634 10 0.0 0.0 0.00 0.00 0.00 84 1014.7
20260504042104 10 0.0 0.0 0.00 0.00 0.00 84 1014.7
20260504040500 9 0.0 0.0 0.00 0.00 0.00 84 1014.6
20260504035147 9 0.0 0.0 0.00 0.00 0.00 83 1014.7
20260504033453 10 0.0 0.0 0.00 0.00 0.00 84 1014.8
20260504032048 9 0.0 0.0 0.00 0.00 0.00 84 1014.8
20260504030422 9 0.0 0.0 0.00 0.00 0.00 85 1014.8
20260504024800 9 0.0 0.0 0.00 0.00 0.00 85 1014.8
20260504023322 9 0.0 0.0 0.00 0.00 0.00 84 1014.9
20260504021314 10 0.0 0.0 0.00 0.00 0.00 83 1014.7
20260504015839 10 0.0 0.0 0.00 0.00 0.00 83 1014.7
20260504014349 10 0.0 0.0 0.00 0.00 0.00 83 1014.8
20260504012902 10 0.0 0.0 0.00 0.00 0.00 84 1014.9
20260504011718 10 0.0 0.0 0.00 0.00 0.00 84 1014.9
20260504010100 10 0.0 0.0 0.00 0.00 0.00 83 1015.0
20260504004400 10 0.0 0.0 0.00 0.00 0.00 83 1015.0
20260504002824 10 0.0 0.0 0.00 0.00 0.00 84 1014.9
20260504001208 10 0.0 0.0 0.00 0.00 0.00 83 1014.8
20260504000116 10 0.0 0.0 0.00 0.00 0.00 83 1014.8
20260503234550 11 0.0 0.0 0.00 0.00 0.00 81 1014.7
20260503233040 11 0.0 0.0 0.00 0.00 0.00 82 1014.7
20260503231539 11 0.0 0.0 0.00 0.00 0.00 82 1014.7
20260503230052 11 0.0 0.0 0.00 0.00 0.00 81 1014.7
20260503224100 11 0.0 0.0 0.00 0.00 0.00 81 1014.9
20260503222533 11 0.0 0.0 0.00 0.00 0.00 80 1015.0
20260503221014 12 0.0 0.0 0.00 0.00 0.00 80 1014.8
20260503215541 12 0.0 0.0 0.00 0.00 0.00 80 1014.8
20260503214123 12 0.0 0.0 0.00 0.00 0.00 79 1014.8
20260503213115 12 0.0 0.0 0.00 0.00 0.00 79 1014.9
20260503211837 12 0.0 0.0 0.00 0.00 0.00 79 1014.8
20260503210002 12 0.0 0.0 0.00 0.00 0.00 78 1014.8